Location: Bli��� Lhota
(48.7570°N, 14.0120°E)
Time: 07:57:31
(UTC+00:00)

Cosmos 1898 Rocket - Pass Details

Date: 18 September 2020
Orbit: 753 x 784 km, 74.0° (Epoch: 24 October)

Event Time Altitude Azimuth Distance (km) Brightness Sun altitude
Rises 18:24:52 0° 214° (SW) 3,194 6.9 -13.0°
Reaches altitude 10° 18:27:16 10° 218° (SW) 2,273 6.2 -13.4°
Maximum altitude 18:32:20 57° 297° (WNW) 891 4.2 -14.2°
Drops below altitude 10° 18:37:27 10° 17° (NNE) 2,294 6.0 -15.0°
Sets 18:39:53 0° 21° (NNE) 3,227 6.7 -15.3°
